Location: Arborea
(39.7744°N, 8.5819°E)
Time: 10:51:30
(UTC+00:00)

Cosmos 2322 - Visible Passes

Search period start: 29 May 2022 00:00
Search period end: 08 June 2022 00:00
Orbit: 839 x 856 km, 71.0° (Epoch: 28 May)

Date Brightness Start Highest point End Pass type
(mag) Time Alt. Az. Time Alt. Az. Time Alt. Az.
29 May 4.1 21:44:55 45° E 21:44:55 45° E 21:50:07 10° NE visible
29 May 5.4 23:26:48 21° W 23:29:02 27° NW 23:33:51 10° N visible
30 May 4.1 21:31:15 44° ESE 21:31:23 44° ESE 21:36:47 10° NE visible
30 May 5.4 23:13:08 20° W 23:15:43 27° NW 23:20:33 10° N visible
31 May 4.1 21:17:29 42° ESE 21:18:04 43° ESE 21:23:28 10° NE visible
31 May 5.4 22:59:22 18° W 23:02:23 28° NW 23:07:15 10° N visible
01 Jun 4.1 21:03:37 38° SE 21:04:45 42° ESE 21:10:07 10° NE visible
01 Jun 5.4 22:45:28 16° WSW 22:49:03 28° WNW 22:53:57 10° N visible
02 Jun 4.1 20:49:35 32° SSE 20:51:27 41° ESE 20:56:47 10° NE visible
02 Jun 5.4 22:31:26 13° WSW 22:35:44 29° WNW 22:40:40 10° N visible
03 Jun 4.2 20:35:22 25° SSE 20:38:08 40° ESE 20:43:27 10° NE visible
03 Jun 5.4 22:17:27 10° WSW 22:22:24 29° WNW 22:27:22 10° N visible
04 Jun 4.2 20:20:52 17° SSE 20:24:50 39° ESE 20:30:07 10° NE visible
04 Jun 5.4 22:04:06 10° WSW 22:09:04 30° WNW 22:14:04 10° N visible
05 Jun 4.2 20:06:17 10° S 20:11:31 39° ESE 20:16:47 10° NE visible
05 Jun 5.4 21:50:45 10° WSW 21:55:45 30° WNW 22:00:46 10° N visible
06 Jun 4.2 19:53:00 10° S 19:58:13 38° ESE 20:03:27 10° NE visible
06 Jun 5.4 21:37:23 10° WSW 21:42:25 31° WNW 21:47:28 10° N visible
07 Jun 4.3 19:39:43 10° S 19:44:54 37° ESE 19:50:07 10° NE visible
07 Jun 5.4 21:24:02 10° WSW 21:29:05 32° WNW 21:34:10 10° N visible
